sat.trackr.live / text

‹ back to catalog

STARLINK-36460

NORAD 67432 · 2026-005AE

PAYLOAD ACTIVE UNKNOWN

§ Identity

Operator
Country
US
Launch date
2026-01-12
Launch site
AFETR
Launch vehicle
Mass (kg)
RCS (m²)

Purposes: comms

External: N2YO · Heavens-Above · Gunter

§ Orbital elements

Epoch: 2026-05-25T01:47:11.411232Z

Period
94.27 min
Inclination
43.0073°
Eccentricity
0.0004409
Mean motion
15.27591656 rev/d
Perigee alt
480.0 km
Apogee alt
486.0 km
Semi-major
6,861.2 km
B*
6.6467e-4
RAAN
167.0193°
Arg perigee
282.8198°
Mean anomaly
77.2161°
Rev number
2,036

§ Raw data

STARLINK-364601 67432U 26005AE  26145.07443763  .00018083  00000+0  66467-3 0  99982 67432  43.0073 167.0193 0004409 282.8198  77.2161 15.27591656 20365

JSON: /api/v1/satellites/67432 · /tle

For live sub-satellite position, see the globe view (requires WebGL).

§ Visibility from observer

Set your observer location to see the next 7 days of passes ≥ 10°. The values pass through the URL so the page stays shareable.

No JS? Fill the form by hand. The geolocation button needs JavaScript.